Elia Coppola

Chefscout - Empoli
25 Nov 2027
Donnerstag
Verarbeitung

Persönlichkeit

Anpassungsfähigkeit (18) Ehrgeiz (14) Kontroverse (18) Loyalität (18) Druck (16) Professionalität (9) Fairness (4) Temperament (8)

Profil

Trainerstil Demokratisch
Lizenz Kontinentale A
Entschlossenheit 13
Menschenführung 4
Motivation 7
Disziplin 4
Arbeitszufriedenheit
100%
Ermüdung
0%
Rolle Chefscout
Gehalt 55.9K p/W
Vertrag 14.03.2028

Leistung

Verhalten Gut
Trainingseffektivität
45%
Spielerentwicklung
20%
Verletzungsprävention
35%
Taktische Umsetzung
30%

Letzte Ereignisse

Nahm an einer Scouting-Besprechung teil jetzt
Empfahl ein Transferziel jetzt
Empfahl ein Transferziel jetzt
Empfahl ein Transferziel jetzt
Empfahl ein Transferziel jetzt
Empfahl ein Transferziel 7T her
Empfahl ein Transferziel 7T her
Empfahl ein Transferziel 7T her

Aktuell beobachtet

121
Spieler Verein Status Fähigkeit Vertrauen Beobachtet Zuletzt beobachtet Letzte Stimme
Bitello SC Freiburg Aktiv 135 / 135 68% 1 01.06.2027 Befürworten
Bernat Guiu Virtus Entella Verloren 122 / 113 69% 1 01.06.2027 -
Zane Albarus Cambridge United Aktiv 97 / 105 40% 4 31.05.2027 -
Matías Gómez Granada Aktiv 119 / 127 40% 8 30.05.2027 -
Jofre Torrents Ajax Aktiv 131 / 133 40% 6 30.05.2027 -
Franz-Ethan Meichtry Genoa Aktiv 119 / 126 40% 1 30.05.2027 -
Yussif Saidu Zaragoza Aktiv 131 / 129 40% 4 29.05.2027 -
Shea Lacey Wolverhampton Aktiv 123 / 133 40% 4 27.05.2027 -
Ibrahim Maza Bayer Leverkusen Aktiv 142 / 154 40% 7 27.05.2027 -
Adam Bakoune Ospitaletto Aktiv 104 / 96 40% 4 27.05.2027 -
Mfundo Vilakazi Kaizer Chiefs Aktiv 129 / 117 40% 3 26.05.2027 -
Lander Astiazarán Real Sociedad Aktiv 110 / 116 40% 3 26.05.2027 -
Jayden Addai Como Aktiv 135 / 128 40% 6 24.05.2027 -
Alphadjo Cissé Como Aktiv 131 / 136 40% 5 23.05.2027 -
Christ Inao Oulaï Fiorentina Aktiv 130 / 144 40% 8 22.05.2027 -
Davide Bartesaghi AC Milan Aktiv 138 / 128 40% 4 22.05.2027 -
Sascha Britschgi Padova Aktiv 122 / 127 40% 4 22.05.2027 -
Pietro Reggiori Pro Patria Aktiv 93 / 89 40% 4 21.05.2027 -
Monty Batlhabane Polokwane City Aktiv 86 / 107 40% 5 20.05.2027 -
André Miranda Porto Aktiv 93 / 100 40% 3 20.05.2027 -
Kutlwano Letlhaku Ajax Cape Town Aktiv 104 / 127 40% 2 19.05.2027 -
Rodrigo Mora AS Roma Aktiv 128 / 151 40% 7 18.05.2027 -
Borna Knezović Casarano Aktiv 112 / 109 40% 3 14.05.2027 -
Mattia Rutigliano Pro Vercelli Aktiv 97 / 104 40% 2 14.05.2027 -
Víctor Guzmán Sporting CP Aktiv 103 / 98 40% 1 14.05.2027 -
Alex Amorim Genoa Aktiv 135 / 129 40% 2 11.05.2027 -
Gilberto Mora Atlético Madrid Aktiv 135 / 142 40% 2 11.05.2027 -
Dean Vranici Giresunspor Aktiv 91 / 95 40% 2 10.05.2027 -
Darryl Bakola Padova Aktiv 108 / 121 40% 3 10.05.2027 -
Thulani Dala Platinum Stars Aktiv 106 / 95 40% 4 08.05.2027 -
Rayan Bournemouth Aktiv 135 / 148 40% 2 08.05.2027 -
Paulo Cardoso Sporting CP Aktiv 96 / 105 40% 3 05.05.2027 -
Percy Jali Free State Stars Aktiv 87 / 99 40% 5 26.04.2027 -
Leonardo Mendicino Bari Aktiv 106 / 127 40% 2 26.04.2027 -
Lynden Edhart Cambuur Aktiv 106 / 107 40% 3 25.04.2027 -
Kamarni Ryan Burton Albion Aktiv 97 / 106 40% 2 22.04.2027 -
Martim Cunha Porto Aktiv 108 / 102 40% 1 22.04.2027 -
Calum Agius Crewe Alexandra Aktiv 98 / 104 40% 1 18.04.2027 -
Riley Owen Trento Aktiv 107 / 113 40% 3 15.04.2027 -
Leandro Martins Benfica Aktiv 90 / 93 40% 2 11.04.2027 -
Luciano Peluso Giugliano Aktiv 91 / 112 40% 1 07.04.2027 -
Rocco Vata Watford Aktiv 128 / 128 40% 1 03.04.2027 -
Ilja Ishkov Ural Aktiv 97 / 107 40% 1 01.04.2027 -
Samuele di Benedetto Bari Aktiv 112 / 124 40% 2 27.03.2027 -
Cemran Dansin Orlando Pirates Aktiv 104 / 122 40% 1 23.03.2027 -
Ishmael Addo Heart of Lions Aktiv 88 / 99 40% 2 19.03.2027 -
Williams Wonah AS Korofina Aktiv 68 / 95 40% 3 12.03.2027 -
Nikita Posmashny Chaika Aktiv 80 / 77 40% 1 11.03.2027 -
Araphat Mohammed Berekum Chelsea Aktiv 111 / 98 40% 1 10.03.2027 -
Kai Enslin Charlton Athletic Aktiv 89 / 95 40% 1 09.03.2027 -
Raymond Agyemang Aduana Stars Aktiv 78 / 84 40% 1 08.03.2027 -
Tobias Slotsager Casertana Aktiv 115 / 117 40% 1 06.02.2027 -
Ruben van Bommel Ferencvaros Aktiv 129 / 123 40% 2 18.01.2027 -
Jesús Rodríguez Como Aktiv 142 / 143 40% 1 18.01.2027 -
Jens Odgaard Bologna Aktiv 136 / 145 40% 4 11.01.2027 -
Nadir Zortea Bologna Aktiv 142 / 137 40% 1 11.01.2027 -
Luciano Gondou CSKA Moscow Aktiv 142 / 130 40% 3 01.01.2027 -
Camillo Tavernelli Arezzo Aktiv 123 / 114 40% 4 01.01.2027 -
Nicolás Fernández Mercau Shakhtar Verhandlung 134 / 134 90% 1 01.01.2027 Befürworten
Israel Reyes CSKA Moscow Verhandlung 137 / 137 68% 1 01.01.2027 Befürworten
Guillaume Furrer Lecco Aktiv 96 / 103 40% 1 01.01.2027 -
Amin Sarr Hellas Verona Aktiv 134 / 126 40% 4 31.12.2026 -
Bongani Mothiba SuperSport United Aktiv 79 / 75 40% 1 31.12.2026 -
Santiago Pierotti Lecce Aktiv 136 / 123 40% 2 29.12.2026 -
Krisztofer Horváth Ujpest Aktiv 112 / 105 40% 1 28.12.2026 -
Steven Nufour New Edubiase United Aktiv 83 / 79 40% 1 28.12.2026 -
Émile Fontaine Chamois Niortais Aktiv 109 / 132 40% 1 28.12.2026 -
Warren Zaïre-Emery Paris Saint-Germain Aktiv 161 / 156 40% 2 26.12.2026 -
Konan N'Dri Lecce Aktiv 122 / 122 40% 2 26.12.2026 -
Alexis Cuello San Lorenzo Aktiv 122 / 125 40% 1 26.12.2026 -
Cheveyo Tsawa Club Brugge Aktiv 110 / 122 40% 1 24.12.2026 -
Juan Manuel Boselli Krasnodar Aktiv 118 / 125 40% 1 24.12.2026 -
Evidence Makgopa Orlando Pirates Aktiv 121 / 109 40% 2 23.12.2026 -
Jacques Siwe Rubin Aktiv 106 / 118 40% 1 23.12.2026 -
Ihor Krasnopir Polissia Aktiv 105 / 112 40% 2 20.12.2026 -
Mattia Felici Cagliari Aktiv 140 / 129 40% 4 17.12.2026 -
Lorenzo Colombo Genoa Aktiv 142 / 144 40% 3 17.12.2026 -
Giuseppe Di Serio Spezia Aktiv 121 / 127 40% 1 15.12.2026 -
Vitinha Genoa Aktiv 141 / 137 40% 4 14.12.2026 -
Leandro Godoy CSKA Sofia Aktiv 114 / 120 40% 1 13.12.2026 -
Emanuele Schimmenti Potenza Aktiv 115 / 114 40% 1 13.12.2026 -
Manfred Ugalde Spartak Moscow Aktiv 131 / 139 40% 1 11.12.2026 -
Themba Ngcobo SuperSport United Aktiv 132 / 114 40% 3 10.12.2026 -
Mihael Mlinarić Zaglebie Aktiv 128 / 120 40% 2 10.12.2026 -
David Romero Parma Aktiv 123 / 117 40% 2 09.12.2026 -
Cédric Don Maccabi Haifa Aktiv 120 / 133 40% 1 09.12.2026 -
Zakaria Aboukhlal Torino Aktiv 137 / 135 40% 1 08.12.2026 -
Eren Aydın Zira Aktiv 101 / 111 40% 1 07.12.2026 -
Yago Santiago Racing Santander Aktiv 117 / 130 40% 1 07.12.2026 -
Cristian Shpendi Cesena Aktiv 133 / 129 40% 2 06.12.2026 -
Robert Mizo Ashanti Gold Aktiv 115 / 97 40% 2 04.12.2026 -
Matteo Rover Reggiana Aktiv 120 / 115 40% 1 03.12.2026 -
Tomás González Piast Aktiv 102 / 105 40% 1 02.12.2026 -
Filip Bundgaard Brondby Aktiv 128 / 123 40% 1 26.11.2026 -
Mandla Mahlangu Ajax Cape Town Aktiv 107 / 115 40% 1 25.11.2026 -
Tijjani Noslin Lazio Aktiv 134 / 132 40% 2 23.11.2026 -
Agustín Módica Gimnasia y Esgrima Aktiv 132 / 125 40% 2 23.11.2026 -
Juan Giménez Celta Aktiv 116 / 119 40% 1 23.11.2026 -
Arjan Malić Sturm Graz Aktiv 123 / 127 40% 1 19.11.2026 -
Everton Bala Levski Aktiv 123 / 121 40% 1 13.11.2026 -
Bénie Traoré New York City Aktiv 126 / 120 40% 1 10.11.2026 -
Giacomo Raspadori Atalanta Aktiv 156 / 139 40% 1 09.11.2026 -
Sota Kitano Luzern Aktiv 132 / 120 40% 2 08.11.2026 -
Petar Stanić Ludogorets Aktiv 145 / 129 40% 1 08.11.2026 -
Fiete Arp OB Aktiv 137 / 117 40% 1 06.11.2026 -
Mustapha Sangaré Levski Aktiv 113 / 119 40% 1 06.11.2026 -
Tamerlan Musaev CSKA Moscow Aktiv 111 / 124 40% 1 06.11.2026 -
Santiago Montiel Independiente Aktiv 113 / 122 40% 1 06.11.2026 -
Lucas Da Cunha Como Aktiv 135 / 138 40% 1 05.11.2026 -
Nicolò Cambiaghi Bologna Aktiv 137 / 142 40% 1 05.11.2026 -
Rafael Navarro St. Louis CITY SC Aktiv 133 / 119 40% 1 02.11.2026 -
Nico O'Reilly Manchester City Aktiv 156 / 151 40% 1 08.10.2026 -
Ezra Mayers West Ham United Aktiv 108 / 118 40% 1 05.10.2026 -
Cheikh Niasse Hellas Verona Aktiv 132 / 121 62% 1 31.08.2026 Befürworten
Noah Sadiki Sunderland Aktiv 143 / 146 40% 1 25.08.2026 -
Marcel Ruiz RC Lens Aktiv 140 / 141 66% 1 24.08.2026 Befürworten
Erick Sánchez OGC Nice Aktiv 139 / 139 66% 1 24.08.2026 Befürworten
Derek Mazou-Sacko Millwall Aktiv 121 / 128 40% 1 17.08.2026 -
Jorrel Hato Chelsea Aktiv 136 / 153 40% 1 17.08.2026 -
Lucas Agazzi Defensor Sporting Aktiv 110 / 133 40% 1 10.08.2026 -
Kai Havertz Arsenal Aktiv 150 / 165 40% 1 01.08.2026 -